STARLINK-5105 (54001 NORAD) Tracking and Keplerian Element Data

This shows tracking and keplerian element data for the satellite.

Feedback or suggestion? Click here.




ElementValue
Catalog54001
NameSTARLINK-5105
Epoch Orbit130
Epoch Day324.91667824
Epoch Year2022
RAAN225.4675
Inclination53.2164
Eccentricity0.0001283
Argument of Perigee107.9273
Mean Anonmoly167.4842
Mean Motion15.49920027
Decay Rate-0.00015577
L11 54001U 22125AP 22324.91667824 -.00015577 00000+0 -26670-3 0 9998
L22 54001 53.2164 225.4675 0001283 107.9273 167.4842 15.49920027 1302



Live tracking and technical data element details for STARLINK-5105 (NORAD 54001). STARLINK-5105 can be tracked NOW for your location showing map with azimuth and elevation plus other details from your city location.







IsCatalogInMostPopularTable: catalog: 54001, numindb: 3
Update: records affected: 1



GetName: 54001 STARLINK-5105

Hit Count: updated at: Mon, 28 Nov 2022 21:23:57 GMT